Terminal Aerodrome Forecast
Issued by NWS

Home | Current Version | Previous Version | Text Only | Print | Product List | Glossary Off
Versions: 1 2 3 4 5 6 7 8 9 10 11 12 13 14 15

674
FTUS43 KBIS 231122
TAFDIK
TAF
KDIK 231122Z 2312/2412 19015KT P6SM VCSH OVC025
     FM231500 26012G18KT P6SM FEW040
     FM231700 29020G30KT P6SM SKC
     FM240300 30009KT P6SM SKC
     FM240900 27006KT P6SM SKC=

USA.gov is the U.S. government's official web portal to all federal, state and local government web resources and services.